Location: City of Moscow
(46.7306°N, 116.9989°W)
Time: 12:59:52
(UTC+00:00)

Cosmos 1626 Rocket - Pass Details

Date: 22 March 2026
Orbit: 595 x 624 km, 82.5° (Epoch: 18 April)

Event Time Altitude Azimuth Distance (km) Brightness Sun altitude
Rises 11:16:28 0° 354° (N) 2,887 7.3 -25.3°
Reaches altitude 10° 11:18:45 10° 359° (N) 1,972 6.5 -25.0°
Maximum altitude 11:23:02 55° 78° (ENE) 731 4.1 -24.3°
Enters shadow 11:26:29 15° 154° (SSE) 1,647 5.7 -23.8°
